Location: Bow
(51.5261°N, 0.0167°W)
Time: 13:29:27
(UTC+00:00)

MetOp-A - Pass Details

Date: 22 June 2021
Orbit: 819 x 821 km, 98.5° (Epoch: 31 July)

Event Time Altitude Azimuth Distance (km) Brightness Sun altitude
Rises 21:12:34 0° 223° (SW) 3,346 7.2 -6.3°
Reaches altitude 10° 21:16:30 10° 252° (WSW) 2,421 6.9 -6.7°
Maximum altitude 21:18:41 12° 276° (W) 2,254 7.1 -6.9°
Drops below altitude 10° 21:20:53 10° 301° (WNW) 2,428 7.9 -7.1°
Sets 21:24:51 0° 330° (NNW) 3,368 9.8 -7.5°
